Tracking 27079 objects as of 24-Mar-2023
HD Live streaming from Space Station
objects crossing your sky now

STARLINK-1866

Track STARLINK-1866 now!
10-day predictions
STARLINK-1866 is classified as:


NORAD ID: 47152
Int'l Code: 2020-088AG
Perigee: 552.8 km
Apogee: 555.7 km
Inclination: 53.1 °
Period: 95.6 minutes
Semi major axis: 6925 km
RCS: Unknown
Launch date: November 25, 2020
Source: United States (US)
Launch site: AIR FORCE EASTERN TEST RANGE (AFETR)
Your satellite tracking list
Your tracking list is empty




NASA's NSSDC Master Catalog

Two Line Element Set (TLE):
1 47152U 20088AG  23082.82047763  .00007159  00000-0  49868-3 0  9999
2 47152  53.0538 118.3087 0002079  77.4229 282.6993 15.06423277129022
Source of the keplerian elements: AFSPC